Location: *
(41.3833°S, 177.8333°W)
Time: 08:03:19
(UTC+00:00)

H-2A R/B - Pass Details

Date: 01 April 2020
Orbit: 578 x 654 km, 98.5° (Epoch: 03 June)

Event Time Altitude Azimuth Distance (km) Brightness Sun altitude
Rises 16:56:41 0° 184° (S) 3,021 5.6 -14.2°
Reaches altitude 10° 16:59:34 10° 202° (SSW) 2,100 4.6 -13.6°
Maximum altitude 17:02:33 17° 243° (WSW) 1,650 3.7 -13.1°
Enters shadow 17:03:07 17° 252° (WSW) 1,666 3.7 -13.0°
